{"data":{"norad_id":57241,"intl_designator":"2023-094Z","name":"STARLINK-6349","alt_names":[],"object_type":"PAYLOAD","status":"ACTIVE","operator":null,"country":"US","launch_date":"2023-07-07","launch_site_code":"AFWTR","launch_vehicle":null,"mission":null,"orbit_class":"UNKNOWN","rcs_meters":null,"size_class":null,"mass_kg":null,"dimensions":null,"purposes":["comms"],"wikipedia_slug":null,"has_3d_model":false,"image_url":null,"decayed_at":null,"tle_current":{"epoch":"2026-09-20T13:46:45.998400Z","epoch_age_seconds":117918,"freshness":"FRESH","line1":"1 57241U 23094Z   26263.57414350 -.00000787  00000+0 -19080-4 0  9990","line2":"2 57241  43.0045 359.4125 0001174 280.2020  79.8699 15.27573581177044","mean_motion":15.27573581,"eccentricity":0.0001174,"inclination_deg":43.0045,"raan_deg":359.4125,"arg_perigee_deg":280.202,"mean_anomaly_deg":79.8699,"bstar":-1.908e-5,"rev_number":17704,"period_min":94.267144830911,"perigee_km":482.26281139798,"apogee_km":483.87382240639,"semimajor_km":6861.2053169022,"source":"CELESTRAK","updated_at":"2026-09-21T09:00:33.589044Z"}}}